Project,Study,Ord_Occ,Event_Num,Cast_ID,Date_Time_UTC,Date_Time_PST,Lat_Dec,Lon_Dec,Sta_ID,Line,Sta,Depth,Pressure,PrQ,Temp1,Temp1Q,Temp2,Temp2Q,TempAve,Salt1,Salt1Q,Salt1_Corr,Salt2,Salt2Q,Salt2_Corr,SaltAve_Corr,Ox1,Ox1Q,Ox1_CruiseCorr,Ox1_StaCorr,Ox2,Ox2Q,Ox2_CruiseCorr,Ox2_StaCorr,OxAve_StaCorr,Ox1uM,Ox1uM_CruiseCorr,Ox1uM_StaCorr,Ox2uM,Ox2uM_CruiseCorr,Ox2uM_StaCorr,OxAveuM_StaCorr,FluorV,FluorQ,EstChl_CruiseCorr,EstChl_StaCorr,ISUSV,ISUSQ,EstNO3_CruiseCorr,EstNO3_StaCorr,SigThetaTS1,SigThetaTS1Q,SigThetaTS2,SigThetaTS2Q,BAT,XMiss,TransQ,pH,pHQ,SPAR,SPARQ,PAR,PARQ,PoT1,PoT2,DynHt,SVA,OxSat1,OxSat2,BTL_Depth,BTL_Temp,SaltB,OxB,OxBuM,Chl-a,Phaeo,NO3,NO2,NH4,PO4,SIL
CalCOFI,2007SR,026,27,2007_026d,18-Jul-2020 15:28:48,18-Jul-2020 07:28:48,32.91902,-118.93508,090.0 045.0,090.0,045.0,2.000,2.014,,19.7875,,19.7874,,19.7875,33.7064,,33.7066,33.7064,,33.7080,33.7073,5.4807,,5.7091,5.7699,3.8991,,5.3671,4.2690,5.0195,239.072,249.0792,206.8626,170.081,419.1912,159.7335,183.2981,0.1389,,1.2100,1.7304,-99.0,,-99.0,0.000,23.8308,,23.8308,,0.9502,78.8545,,8.219,,7.3111E+02,,2.2737E+01,,19.7871,19.7870,0.0012,,104.693,74.481,2,19.788,33.7085,5.711,249.27,1.579,0.090,0.0,0.00,0.00,0.05,0.22
CalCOFI,2007SR,026,27,2007_026d,18-Jul-2020 15:28:54,18-Jul-2020 07:28:54,32.91902,-118.93508,090.0 045.0,090.0,045.0,3.000,3.021,,19.7849,,19.7848,,19.7849,33.7063,,33.7065,33.7062,,33.7078,33.7072,5.4797,,5.7080,5.7689,3.9111,,5.3958,4.2958,5.0324,239.029,249.0343,206.8287,170.602,419.0860,160.7156,183.7722,0.1382,,1.2017,1.7134,-99.0,,-99.0,0.000,23.8314,,23.8314,,0.9503,78.8536,,8.219,,7.3327E+02,,1.8987E+01,,19.7843,19.7842,0.0059,,104.669,74.705,,,,,,,,,,,,
CalCOFI,2007SR,026,27,2007_026d,18-Jul-2020 15:28:56,18-Jul-2020 07:28:56,32.91902,-118.93508,090.0 045.0,090.0,045.0,4.000,4.028,,19.7845,,19.7844,,19.7845,33.7062,,33.7064,33.7061,,33.7077,33.7071,5.4840,,5.7125,5.7734,3.9148,,5.4046,4.3041,5.0388,239.217,249.2305,206.9767,170.766,419.5458,161.0248,184.0008,0.1396,,1.2182,1.7474,-99.0,,-99.0,0.000,23.8316,,23.8315,,0.9492,78.8744,,8.219,,7.3453E+02,,1.5570E+01,,19.7837,19.7837,0.0100,,104.750,74.776,,,,,,,,,,,,
CalCOFI,2007SR,026,27,2007_026d,18-Jul-2020 15:28:58,18-Jul-2020 07:28:58,32.91902,-118.93508,090.0 045.0,090.0,045.0,5.000,5.036,,19.7856,,19.7852,,19.7854,33.7064,,33.7066,33.7062,,33.7078,33.7072,5.4831,,5.7116,5.7725,3.9185,,5.4134,4.3123,5.0424,239.176,249.1877,206.9444,170.928,419.4455,161.3302,184.1373,0.1398,,1.2206,1.7522,,,,,23.8314,,23.8314,,0.9504,78.8522,,8.219,,7.3506E+02,,1.2851E+01,,19.7847,19.7843,0.0141,,104.735,74.848,,,,,,,,,,,,
CalCOFI,2007SR,026,27,2007_026d,18-Jul-2020 15:29:01,18-Jul-2020 07:29:01,32.91902,-118.93508,090.0 045.0,090.0,045.0,6.000,6.043,,19.7873,,19.7868,,19.7871,33.7064,,33.7066,33.7064,,33.7080,33.7073,5.4870,,5.7157,5.7766,3.9217,,5.4211,4.3195,5.0481,239.347,249.3662,207.0791,171.065,419.8638,161.5884,184.3338,0.1437,,1.2666,1.8484,,,,,23.8311,,23.8312,,0.9496,78.8677,,8.219,,7.3505E+02,,1.1084E+01,,19.7862,19.7857,0.0182,,104.813,74.911,,,,,,,,,,,,
CalCOFI,2007SR,026,27,2007_026d,18-Jul-2020 15:29:03,18-Jul-2020 07:29:03,32.91902,-118.93508,090.0 045.0,090.0,045.0,7.000,7.050,,19.7886,,19.7881,,19.7884,33.7064,,33.7066,33.7062,,33.7078,33.7072,5.4836,,5.7121,5.7730,3.9267,,5.4330,4.3307,5.0519,239.197,249.2096,206.9610,171.283,419.4969,161.9994,184.4802,0.1428,,1.2560,1.8260,,,,,23.8308,,23.8308,,0.9488,78.8828,,8.219,,7.3629E+02,,9.6303E+00,,19.7873,19.7868,0.0222,,104.750,75.008,,,,,,,,,,,,
CalCOFI,2007SR,026,27,2007_026d,18-Jul-2020 15:29:04,18-Jul-2020 07:29:04,32.91902,-118.93508,090.0 045.0,090.0,045.0,8.000,8.057,,19.7895,,19.7892,,19.7894,33.7065,,33.7067,33.7064,,33.7080,33.7074,5.4832,,5.7117,5.7726,3.9288,,5.4380,4.3353,5.0540,239.180,249.1919,206.9476,171.376,419.4553,162.1747,184.5612,0.1402,,1.2253,1.7620,,,,,23.8307,,23.8306,,0.9498,78.8640,,8.219,,7.3690E+02,,8.2588E+00,,19.7880,19.7877,0.0264,,104.744,75.050,,,,,,,,,,,,
CalCOFI,2007SR,026,27,2007_026d,18-Jul-2020 15:29:07,18-Jul-2020 07:29:07,32.91902,-118.93508,090.0 045.0,090.0,045.0,9.000,9.064,,19.7897,,19.7891,,19.7894,33.7065,,33.7067,33.7063,,33.7079,33.7073,5.4867,,5.7154,5.7763,3.9323,,5.4464,4.3432,5.0598,239.331,249.3495,207.0665,171.529,419.8247,162.4631,184.7648,0.1433,,1.2619,1.8384,,,,,23.8307,,23.8306,,0.9505,78.8492,,8.219,,7.3695E+02,,7.1069E+00,,19.7881,19.7875,0.0304,,104.811,75.117,,,,,,,,,,,,
CalCOFI,2007SR,026,27,2007_026d,18-Jul-2020 15:29:09,18-Jul-2020 07:29:09,32.91902,-118.93508,090.0 045.0,090.0,045.0,10.000,10.071,,19.7853,,19.7854,,19.7854,33.7060,,33.7062,33.7062,,33.7078,33.7070,5.4882,,5.7169,5.7779,3.9362,,5.4557,4.3519,5.0649,239.398,249.4195,207.1192,171.698,419.9885,162.7817,184.9505,0.1435,,1.2643,1.8434,,,,,23.8315,,23.8315,,0.9513,78.8343,,8.219,,7.3695E+02,,6.2291E+00,,19.7834,19.7836,0.0345,,104.831,75.186,10,19.740,33.7052,, ,,,,,,,
CalCOFI,2007SR,026,27,2007_026d,18-Jul-2020 15:29:11,18-Jul-2020 07:29:11,32.91902,-118.93508,090.0 045.0,090.0,045.0,11.000,11.078,,19.7832,,19.7833,,19.7833,33.7060,,33.7062,33.7061,,33.7077,33.7070,5.4658,,5.6935,5.7541,3.9389,,5.4621,4.3579,5.0560,238.421,248.3996,206.3501,171.814,417.5989,163.0004,184.6753,0.1459,,1.2926,1.9036,,,,,23.8321,,23.8321,,0.9519,78.8223,,8.219,,7.3861E+02,,5.5283E+00,,19.7812,19.7813,0.0386,,104.399,75.234,11,19.689,33.7044,5.663,247.18,1.592,0.133,0.0,0.00,0.14,0.05,0.20
CalCOFI,2007SR,026,27,2007_026d,18-Jul-2020 15:29:13,18-Jul-2020 07:29:13,32.91902,-118.93508,090.0 045.0,090.0,045.0,12.000,12.085,,19.7718,,19.7689,,19.7704,33.7044,,33.7046,33.7035,,33.7051,33.7049,5.4291,,5.6552,5.7150,3.9467,,5.4808,4.3753,5.0452,236.818,246.7262,205.0882,172.158,413.6782,163.6489,184.3686,0.1423,,1.2501,1.8136,,,,,23.8338,,23.8339,,0.9388,79.0801,,8.217,,7.3887E+02,,4.9945E+00,,19.7696,19.7667,0.0427,,103.675,75.363,,,,,,,,,,,,
CalCOFI,2007SR,026,27,2007_026d,18-Jul-2020 15:29:15,18-Jul-2020 07:29:15,32.91902,-118.93508,090.0 045.0,090.0,045.0,13.000,13.093,,19.6297,,19.6130,,19.6214,33.6834,,33.6836,33.6779,,33.6795,33.6816,5.4384,,5.6649,5.7249,3.9613,,5.5156,4.4079,5.0664,237.221,247.1469,205.4055,172.791,414.6639,164.8421,185.1238,0.1257,,1.0542,1.4238,,,,,23.8547,,23.8548,,0.8913,80.0251,,8.211,,7.3886E+02,,4.5519E+00,,19.6274,19.6107,0.0468,,103.569,75.413,,,,,,,,,,,,
CalCOFI,2007SR,026,27,2007_026d,18-Jul-2020 15:29:17,18-Jul-2020 07:29:17,32.91902,-118.93508,090.0 045.0,090.0,045.0,14.000,14.100,,19.5401,,19.5318,,19.5360,33.6762,,33.6764,33.6757,,33.6773,33.6769,5.3568,,5.5796,5.6381,3.9737,,5.5452,4.4356,5.0369,233.658,243.4275,202.6007,173.326,405.9493,165.8507,184.2257,0.1280,,1.0814,1.4753,,,,,23.8723,,23.8741,,0.8817,80.2183,,8.207,,7.3886E+02,,4.1735E+00,,19.5376,19.5293,0.0509,,101.842,75.534,,,,,,,,,,,,
CalCOFI,2007SR,026,27,2007_026d,18-Jul-2020 15:29:19,18-Jul-2020 07:29:19,32.91902,-118.93508,090.0 045.0,090.0,045.0,15.000,15.107,,19.4140,,19.3903,,19.4022,33.6699,,33.6701,33.6669,,33.6685,33.6693,5.1555,,5.3693,5.4239,3.9985,,5.6044,4.4910,4.9575,224.870,234.2537,195.6827,174.405,384.4551,167.8847,181.7837,0.1590,,1.4473,2.2479,,,,,23.9000,,23.9038,,0.9011,79.8306,,8.202,,7.3910E+02,,3.8697E+00,,19.4113,19.3876,0.0549,,97.783,75.803,,,,,,,,,,,,
CalCOFI,2007SR,026,27,2007_026d,18-Jul-2020 15:29:21,18-Jul-2020 07:29:21,32.91902,-118.93508,090.0 045.0,090.0,045.0,16.000,16.114,,18.9743,,18.9209,,18.9476,33.6591,,33.6593,33.6537,,33.6553,33.6573,5.0880,,5.2988,5.3521,4.0372,,5.6968,4.5775,4.9648,221.904,231.1575,193.3479,176.074,377.2007,171.0309,182.1894,0.2197,,2.1655,4.1819,,,,,24.0037,,24.0130,,0.9626,78.6129,,8.193,,7.3926E+02,,3.6398E+00,,18.9714,18.9180,0.0589,,95.710,75.864,,,,,,,,,,,,
CalCOFI,2007SR,026,27,2007_026d,18-Jul-2020 15:29:23,18-Jul-2020 07:29:23,32.91902,-118.93508,090.0 045.0,090.0,045.0,17.000,17.121,,18.5065,,18.4529,,18.4797,33.6633,,33.6635,33.6591,,33.6607,33.6621,5.0338,,5.2421,5.2944,4.0772,,5.7923,4.6668,4.9806,219.513,228.6615,191.4657,177.798,371.3526,174.2809,182.8733,0.2307,,2.2959,4.5921,,,,,24.1243,,24.1344,,0.9580,78.7014,,8.180,,7.4071E+02,,3.3670E+00,,18.5036,18.4500,0.0628,,93.866,75.949,,,,,,,,,,,,
CalCOFI,2007SR,026,27,2007_026d,18-Jul-2020 15:29:25,18-Jul-2020 07:29:25,32.91902,-118.93508,090.0 045.0,090.0,045.0,18.000,18.128,,17.9809,,17.8777,,17.9293,33.6523,,33.6525,33.6562,,33.6578,33.6552,5.0743,,5.2844,5.3375,4.1474,,5.9599,4.8236,5.0806,221.252,230.4769,192.8346,180.835,375.6060,180.0059,186.4203,0.2304,,2.2924,4.5807,,,,,24.2452,,24.2734,,0.9249,79.3557,,8.166,,7.4166E+02,,3.0482E+00,,17.9779,17.8747,0.0665,,93.677,76.418,,,,,,,,,,,,
CalCOFI,2007SR,026,27,2007_026d,18-Jul-2020 15:29:28,18-Jul-2020 07:29:28,32.91902,-118.93508,090.0 045.0,090.0,045.0,19.000,19.136,,16.7119,,16.5492,,16.6306,33.5825,,33.5827,33.5663,,33.5679,33.5753,4.7973,,4.9950,5.0427,4.2736,,6.2612,5.1055,5.0741,209.126,217.8185,183.2890,186.293,345.9475,190.2948,186.7919,0.2362,,2.3611,4.8040,,,,,24.4940,,24.5193,,0.8972,79.9078,,8.158,,7.4170E+02,,2.7784E+00,,16.7088,16.5461,0.0701,,86.424,76.716,,,,,,,,,,,,
CalCOFI,2007SR,026,27,2007_026d,18-Jul-2020 15:29:29,18-Jul-2020 07:29:29,32.91902,-118.93508,090.0 045.0,090.0,045.0,20.000,20.143,,15.4677,,15.4495,,15.4586,33.5290,,33.5292,33.5287,,33.5303,33.5298,4.6409,,4.8316,4.8763,4.3499,,6.4433,5.2759,5.0761,202.258,210.6490,177.8825,189.577,329.1494,196.4855,187.1840,0.2051,,1.9926,3.6658,,,,,24.7360,,24.7398,,0.8605,80.6439,,8.146,,7.4157E+02,,2.5953E+00,,15.4646,15.4465,0.0735,,81.539,76.406,,,,,,,,,,,,
CalCOFI,2007SR,026,27,2007_026d,18-Jul-2020 15:29:31,18-Jul-2020 07:29:31,32.91902,-118.93508,090.0 045.0,090.0,045.0,21.000,21.150,,14.7842,,14.7738,,14.7790,33.5612,,33.5614,33.5600,,33.5616,33.5615,4.6858,,4.8785,4.9241,4.3931,,6.5464,5.3724,5.1483,204.183,212.6585,179.3978,191.426,333.8576,199.9711,189.6845,0.1399,,1.2218,1.7547,,,,,24.9100,,24.9113,,0.8316,81.2291,,8.113,,7.4263E+02,,2.4425E+00,,14.7811,14.7707,0.0766,,81.240,76.147,21,15.818,33.5971,5.359,233.94,2.251,0.607,0.07,0.038,1.30,0.29,2.54
CalCOFI,2007SR,026,27,2007_026d,18-Jul-2020 15:29:33,18-Jul-2020 07:29:33,32.91902,-118.93508,090.0 045.0,090.0,045.0,22.000,22.157,,14.7063,,14.6521,,14.6792,33.5911,,33.5913,33.5772,,33.5788,33.5851,4.5472,,4.7337,4.7766,4.3802,,6.5157,5.3436,5.0601,198.133,206.3429,174.6352,190.858,319.0602,198.9004,186.7678,0.1138,,0.9139,1.1700,,,,,24.9499,,24.9507,,0.8135,81.5982,,8.079,,7.4267E+02,,2.2958E+00,,14.7030,14.6488,0.0796,,78.728,75.747,,,,,,,,,,,,
CalCOFI,2007SR,026,27,2007_026d,18-Jul-2020 15:29:36,18-Jul-2020 07:29:36,32.91902,-118.93508,090.0 045.0,090.0,045.0,23.000,23.164,,14.4013,,14.3799,,14.3906,33.5758,,33.5760,33.5792,,33.5808,33.5784,4.4433,,4.6251,4.6660,4.3729,,6.4982,5.3273,4.9967,193.598,201.6089,171.0653,190.529,307.9682,198.2802,184.6728,0.1055,,0.8161,1.0057,,,,,25.0032,,25.0103,,0.8019,81.8354,,8.059,,7.4267E+02,,2.1448E+00,,14.3980,14.3766,0.0826,,76.452,75.210,,,,,,,,,,,,
CalCOFI,2007SR,026,27,2007_026d,18-Jul-2020 15:29:37,18-Jul-2020 07:29:37,32.91902,-118.93508,090.0 045.0,090.0,045.0,24.000,24.172,,14.2104,,14.2157,,14.2131,33.5752,,33.5754,33.5769,,33.5785,33.5770,4.4536,,4.6359,4.6770,4.3602,,6.4679,5.2989,4.9880,194.036,202.0661,171.4101,189.969,309.0395,197.2245,184.3173,0.0929,,0.6677,0.7762,,,,,25.0429,,25.0431,,0.7866,82.1471,,8.049,,7.4267E+02,,2.0335E+00,,14.2070,14.2123,0.0856,,76.333,74.742,,,,,,,,,,,,
CalCOFI,2007SR,026,27,2007_026d,18-Jul-2020 15:29:39,18-Jul-2020 07:29:39,32.91902,-118.93508,090.0 045.0,090.0,045.0,25.000,25.179,,14.0152,,14.0137,,14.0145,33.5796,,33.5798,33.5809,,33.5825,33.5812,4.4665,,4.6493,4.6907,4.3513,,6.4467,5.2791,4.9849,194.594,202.6486,171.8493,189.575,310.4043,196.4818,184.1656,0.0901,,0.6348,0.7285,,,,,25.0871,,25.0884,,0.7694,82.5022,,8.038,,7.4423E+02,,1.9131E+00,,14.0116,14.0101,0.0885,,76.256,74.288,,,,,,,,,,,,
CalCOFI,2007SR,026,27,2007_026d,18-Jul-2020 15:29:41,18-Jul-2020 07:29:41,32.91902,-118.93508,090.0 045.0,090.0,045.0,26.000,26.186,,13.9748,,13.9616,,13.9682,33.5844,,33.5846,33.5941,,33.5957,33.5902,4.4008,,4.5807,4.6208,4.3261,,6.3865,5.2228,4.9218,191.727,199.6557,169.5924,188.473,303.3920,194.4044,181.9984,0.0849,,0.5736,0.6430,,,,,25.0992,,25.1095,,0.7626,82.6432,,8.028,,7.4427E+02,,1.7575E+00,,13.9710,13.9579,0.0914,,75.075,73.786,,,,,,,,,,,,
CalCOFI,2007SR,026,27,2007_026d,18-Jul-2020 15:29:44,18-Jul-2020 07:29:44,32.91902,-118.93508,090.0 045.0,090.0,045.0,27.000,27.193,,13.7939,,13.7868,,13.7904,33.5828,,33.5830,33.5841,,33.5857,33.5844,4.2884,,4.4632,4.5012,4.3072,,6.3414,5.1806,4.8409,186.824,194.5375,165.7328,187.644,291.4000,192.8416,179.2872,0.0890,,0.6218,0.7100,,,,,25.1354,,25.1379,,0.7528,82.8456,,8.018,,7.4256E+02,,1.5738E+00,,13.7901,13.7829,0.0942,,72.889,73.198,,,,,,,,,,,,
CalCOFI,2007SR,026,27,2007_026d,18-Jul-2020 15:29:46,18-Jul-2020 07:29:46,32.91902,-118.93508,090.0 045.0,090.0,045.0,28.000,28.201,,13.5829,,13.5867,,13.5848,33.5874,,33.5876,33.5891,,33.5907,33.5892,4.2024,,4.3734,4.4097,4.3035,,6.3325,5.1723,4.7910,183.068,190.6166,162.7760,187.473,282.2134,192.5193,177.6477,0.0790,,0.5041,0.5509,,,,,25.1822,,25.1827,,0.7448,83.0096,,8.012,,7.4321E+02,,1.4763E+00,,13.5790,13.5828,0.0971,,71.122,72.839,,,,,,,,,,,,
CalCOFI,2007SR,026,27,2007_026d,18-Jul-2020 15:29:47,18-Jul-2020 07:29:47,32.91902,-118.93508,090.0 045.0,090.0,045.0,29.000,29.208,,13.3836,,13.3946,,13.3891,33.5874,,33.5876,33.5882,,33.5898,33.5887,4.1923,,4.3628,4.3990,4.2949,,6.3120,5.1531,4.7761,182.623,190.1520,162.4257,187.092,281.1250,191.8010,177.1134,0.0763,,0.4724,0.5105,,,,,25.2227,,25.2211,,0.7338,83.2388,,8.003,,7.4456E+02,,1.4077E+00,,13.3796,13.3906,0.0999,,70.663,72.408,,,,,,,,,,,,
CalCOFI,2007SR,026,27,2007_026d,18-Jul-2020 15:29:49,18-Jul-2020 07:29:49,32.91902,-118.93508,090.0 045.0,090.0,045.0,30.000,30.215,,13.2472,,13.2467,,13.2470,33.5914,,33.5916,33.5928,,33.5944,33.5930,4.1526,,4.3214,4.3567,4.2825,,6.2824,5.1254,4.7411,180.886,188.3388,161.0583,186.544,276.8765,190.7680,175.9132,0.0720,,0.4218,0.4485,,,,,25.2533,,25.2544,,0.7276,83.3679,,7.993,,7.4581E+02,,1.3283E+00,,13.2430,13.2426,0.1026,,69.799,71.982,,,,,,,,,,,,
CalCOFI,2007SR,026,27,2007_026d,18-Jul-2020 15:29:51,18-Jul-2020 07:29:51,32.91902,-118.93508,090.0 045.0,090.0,045.0,31.000,31.222,,13.1718,,13.1596,,13.1657,33.5945,,33.5947,33.5967,,33.5983,33.5965,4.1360,,4.3040,4.3390,4.2548,,6.2163,5.0635,4.7013,180.161,187.5820,160.4876,185.335,275.1033,188.4889,174.4883,0.0701,,0.3995,0.4220,,,,,25.2708,,25.2749,,0.7254,83.4142,,7.984,,7.4650E+02,,1.2384E+00,,13.1676,13.1553,0.1053,,69.414,71.391,31,13.271,33.5987,,191.62,0.511,0.382,1.48,0.181,0.37,0.60,6.20
CalCOFI,2007SR,026,27,2007_026d,18-Jul-2020 15:29:53,18-Jul-2020 07:29:53,32.91902,-118.93508,090.0 045.0,090.0,045.0,32.000,32.230,,13.0884,,13.0912,,13.0898,33.5943,,33.5945,33.5963,,33.5979,33.5962,4.1378,,4.3059,4.3410,4.2329,,6.1640,5.0146,4.6778,180.235,187.6592,160.5459,184.380,275.2842,186.6886,173.6173,0.0719,,0.4206,0.4471,,,,,25.2872,,25.2882,,0.7231,83.4623,,7.978,,7.4648E+02,,1.1554E+00,,13.0841,13.0869,0.1080,,69.324,70.924,,,,,,,,,,,,
CalCOFI,2007SR,026,27,2007_026d,18-Jul-2020 15:29:55,18-Jul-2020 07:29:55,32.91902,-118.93508,090.0 045.0,090.0,045.0,33.000,33.237,,13.0350,,13.0366,,13.0358,33.5913,,33.5915,33.5937,,33.5953,33.5934,4.1333,,4.3012,4.3362,4.2124,,6.1151,4.9688,4.6525,180.038,187.4536,160.3908,183.483,274.8024,184.9977,172.6943,0.0740,,0.4453,0.4770,,,,,25.2956,,25.2971,,0.7204,83.5197,,7.973,,7.4648E+02,,1.1001E+00,,13.0305,13.0321,0.1107,,69.172,70.499,,,,,,,,,,,,
CalCOFI,2007SR,026,27,2007_026d,18-Jul-2020 15:29:57,18-Jul-2020 07:29:57,32.91902,-118.93508,090.0 045.0,090.0,045.0,34.000,34.244,,12.9698,,12.9724,,12.9711,33.5879,,33.5881,33.5901,,33.5917,33.5899,4.1100,,4.2768,4.3114,4.1962,,6.0764,4.9326,4.6220,179.025,186.3961,159.5934,182.779,272.3248,183.6706,171.6320,0.0707,,0.4065,0.4303,,,,,25.3060,,25.3071,,0.7173,83.5826,,7.970,,7.4765E+02,,1.0481E+00,,12.9652,12.9677,0.1134,,68.689,70.134,,,,,,,,,,,,
CalCOFI,2007SR,026,27,2007_026d,18-Jul-2020 15:29:59,18-Jul-2020 07:29:59,32.91902,-118.93508,090.0 045.0,090.0,045.0,35.000,35.251,,12.8763,,12.8570,,12.8667,33.5853,,33.5855,33.5874,,33.5890,33.5873,4.0615,,4.2262,4.2598,4.1804,,6.0387,4.8973,4.5786,176.905,184.1830,157.9245,182.085,267.1395,182.3623,170.1434,0.0686,,0.3818,0.4015,,,,,25.3224,,25.3278,,0.7159,83.6122,,7.966,,7.4838E+02,,9.8465E-01,,12.8716,12.8523,0.1161,,67.745,69.702,,,,,,,,,,,,
CalCOFI,2007SR,026,27,2007_026d,18-Jul-2020 15:30:02,18-Jul-2020 07:30:02,32.91902,-118.93508,090.0 045.0,090.0,045.0,36.000,36.259,,12.7719,,12.7723,,12.7721,33.5916,,33.5918,33.5934,,33.5950,33.5934,4.0386,,4.2022,4.2354,4.1629,,5.9969,4.8582,4.5468,175.904,183.1381,157.1365,181.321,264.6912,180.9221,169.0293,0.0690,,0.3865,0.4069,,,,,25.3478,,25.3491,,0.7090,83.7578,,7.961,,7.4726E+02,,9.2302E-01,,12.7671,12.7674,0.1188,,67.220,69.292,,,,,,,,,,,,
CalCOFI,2007SR,026,27,2007_026d,18-Jul-2020 15:30:03,18-Jul-2020 07:30:03,32.91902,-118.93508,090.0 045.0,090.0,045.0,37.000,37.266,,12.6988,,12.6935,,12.6962,33.5906,,33.5908,33.5919,,33.5935,33.5922,4.0197,,4.1825,4.2153,4.1500,,5.9661,4.8294,4.5224,175.078,182.2758,156.4863,180.753,262.6710,179.8513,168.1688,0.0678,,0.3724,0.3906,,,,,25.3613,,25.3634,,0.7053,83.8352,,7.957,,7.4811E+02,,8.8097E-01,,12.6939,12.6885,0.1214,,66.804,68.962,,,,,,,,,,,,
CalCOFI,2007SR,026,27,2007_026d,18-Jul-2020 15:30:05,18-Jul-2020 07:30:05,32.91902,-118.93508,090.0 045.0,090.0,045.0,38.000,38.273,,12.6450,,12.6416,,12.6433,33.5949,,33.5951,33.5973,,33.5989,33.5970,3.9866,,4.1479,4.1801,4.1383,,5.9382,4.8033,4.4917,173.636,180.7705,155.3511,180.242,259.1440,178.8881,167.1196,0.0631,,0.3172,0.3291,,,,,25.3752,,25.3778,,0.7036,83.8713,,7.953,,7.4837E+02,,8.4881E-01,,12.6400,12.6365,0.1240,,66.182,68.697,,,,,,,,,,,,
CalCOFI,2007SR,026,27,2007_026d,18-Jul-2020 15:30:07,18-Jul-2020 07:30:07,32.91902,-118.93508,090.0 045.0,090.0,045.0,39.000,39.280,,12.6074,,12.6053,,12.6064,33.5935,,33.5937,33.5954,,33.5970,33.5954,3.9546,,4.1145,4.1460,4.1226,,5.9007,4.7682,4.4571,172.239,179.3122,154.2514,179.556,255.7272,177.5949,165.9232,0.0644,,0.3324,0.3458,,,,,25.3815,,25.3833,,0.7033,83.8772,,7.949,,7.4838E+02,,8.1244E-01,,12.6022,12.6002,0.1266,,65.599,68.383,,,,,,,,,,,,
CalCOFI,2007SR,026,27,2007_026d,18-Jul-2020 15:30:09,18-Jul-2020 07:30:09,32.91902,-118.93508,090.0 045.0,090.0,045.0,40.000,40.288,,12.4387,,12.4340,,12.4364,33.5932,,33.5934,33.5940,,33.5956,33.5945,3.9602,,4.1203,4.1520,4.1181,,5.8899,4.7582,4.4551,172.481,179.5648,154.4419,179.355,256.3191,177.2160,165.8290,0.0646,,0.3348,0.3483,,,,,25.4139,,25.4154,,0.6975,83.9981,,7.945,,7.4937E+02,,7.7261E-01,,12.4334,12.4287,0.1292,,65.462,68.065,,,,,,,,,,,,
CalCOFI,2007SR,026,27,2007_026d,18-Jul-2020 15:30:12,18-Jul-2020 07:30:12,32.91902,-118.93508,090.0 045.0,090.0,045.0,41.000,41.295,,12.3120,,12.3250,,12.3185,33.5912,,33.5914,33.5930,,33.5946,33.5930,3.9041,,4.0617,4.0923,4.1076,,5.8649,4.7347,4.4135,170.034,177.0104,152.5156,178.896,250.3340,176.3507,164.4332,0.0584,,0.2619,0.2708,,,,,25.4367,,25.4356,,0.6919,84.1165,,7.941,,7.4833E+02,,7.2520E-01,,12.3066,12.3197,0.1318,,64.364,67.738,,,,,,,,,,,,
CalCOFI,2007SR,026,27,2007_026d,18-Jul-2020 15:30:14,18-Jul-2020 07:30:14,32.91902,-118.93508,090.0 045.0,090.0,045.0,42.000,42.302,,12.2108,,12.1992,,12.2050,33.5932,,33.5934,33.5948,,33.5964,33.5949,3.8738,,4.0300,4.0600,4.0978,,5.8415,4.7128,4.3864,168.710,175.6283,151.4733,178.462,247.0957,175.5326,163.5030,0.0601,,0.2819,0.2915,,,,,25.4576,,25.4611,,0.6859,84.2424,,7.938,,7.4950E+02,,6.9678E-01,,12.2054,12.1938,0.1344,,63.730,67.398,42,12.000,33.6030,,178.72,0.238,0.252,7.50,0.045,0.00,0.92,9.63
CalCOFI,2007SR,026,27,2007_026d,18-Jul-2020 15:30:15,18-Jul-2020 07:30:15,32.91902,-118.93508,090.0 045.0,090.0,045.0,43.000,43.310,,12.0822,,12.0722,,12.0772,33.5972,,33.5974,33.5994,,33.6010,33.5992,3.8634,,4.0192,4.0490,4.0977,,5.8412,4.7126,4.3808,168.253,175.1512,151.1136,178.455,245.9780,175.5194,163.3165,0.0499,,0.1620,0.1740,,,,,25.4852,,25.4888,,0.6799,84.3685,,7.935,,7.5027E+02,,6.7891E-01,,12.0766,12.0666,0.1369,,63.390,67.221,,,,,,,,,,,,
CalCOFI,2007SR,026,27,2007_026d,18-Jul-2020 15:30:17,18-Jul-2020 07:30:17,32.91903,-118.93508,090.0 045.0,090.0,045.0,44.000,44.317,,12.0037,,11.9959,,11.9998,33.5985,,33.5987,33.6002,,33.6018,33.6003,3.8246,,3.9786,4.0077,4.0903,,5.8236,4.6961,4.3519,166.558,173.3818,149.7793,178.129,241.8322,174.9048,162.3421,0.0496,,0.1585,0.1707,,,,,25.5011,,25.5038,,0.6759,84.4525,,7.930,,7.5150E+02,,6.6717E-01,,11.9980,11.9903,0.1394,,62.650,66.992,,,,,,,,,,,,
CalCOFI,2007SR,026,27,2007_026d,18-Jul-2020 15:30:19,18-Jul-2020 07:30:19,32.91903,-118.93508,090.0 045.0,090.0,045.0,45.000,45.324,,11.8031,,11.8033,,11.8032,33.6029,,33.6031,33.6028,,33.6044,33.6038,3.7261,,3.8757,3.9029,4.0841,,5.8088,4.6822,4.2926,162.264,168.8993,146.3990,177.854,231.3297,174.3864,160.3927,0.0506,,0.1703,0.1815,,,,,25.5421,,25.5420,,0.6672,84.6375,,7.925,,7.5107E+02,,6.3309E-01,,11.7973,11.7976,0.1419,,60.782,66.622,,,,,,,,,,,,
CalCOFI,2007SR,026,27,2007_026d,18-Jul-2020 15:30:22,18-Jul-2020 07:30:22,32.91902,-118.93508,090.0 045.0,090.0,045.0,46.000,46.332,,11.7042,,11.6983,,11.7013,33.6226,,33.6228,33.6268,,33.6284,33.6256,3.5763,,3.7192,3.7435,4.0728,,5.7818,4.6570,4.2003,155.735,162.0837,141.2594,177.353,215.3607,173.4420,157.3507,0.0502,,0.1656,0.1772,,,,,25.5758,,25.5802,,0.6682,84.6163,,7.918,,7.5025E+02,,6.0345E-01,,11.6984,11.6925,0.1443,,58.223,66.299,,,,,,,,,,,,
CalCOFI,2007SR,026,27,2007_026d,18-Jul-2020 15:30:23,18-Jul-2020 07:30:23,32.91902,-118.93508,090.0 045.0,090.0,045.0,47.000,47.339,,11.6374,,11.6244,,11.6309,33.6402,,33.6404,33.6440,,33.6456,33.6430,3.5557,,3.6977,3.7216,4.0641,,5.7610,4.6376,4.1796,154.833,161.1421,140.5493,176.971,213.1546,172.7219,156.6356,0.0515,,0.1808,0.1913,,,,,25.6019,,25.6072,,0.6700,84.5773,,7.911,,7.5140E+02,,5.8242E-01,,11.6315,11.6185,0.1467,,57.813,66.063,,,,,,,,,,,,
CalCOFI,2007SR,026,27,2007_026d,18-Jul-2020 15:30:25,18-Jul-2020 07:30:25,32.91902,-118.93508,090.0 045.0,090.0,045.0,48.000,48.346,,11.5223,,11.5083,,11.5153,33.6537,,33.6539,33.6555,,33.6571,33.6555,3.5429,,3.6843,3.7079,4.0516,,5.7312,4.6096,4.1588,154.272,160.5564,140.1077,176.422,211.7824,171.6870,155.8974,0.0558,,0.2314,0.2400,,,,,25.6336,,25.6376,,0.6692,84.5949,,7.904,,7.5217E+02,,5.6457E-01,,11.5163,11.5023,0.1491,,57.470,65.703,,,,,,,,,,,,
CalCOFI,2007SR,026,27,2007_026d,18-Jul-2020 15:30:27,18-Jul-2020 07:30:27,32.91902,-118.93508,090.0 045.0,090.0,045.0,49.000,49.354,,11.3980,,11.4774,,11.4377,33.6665,,33.6667,33.6594,,33.6610,33.6639,3.5490,,3.6907,3.7144,4.0338,,5.6887,4.5699,4.1422,154.533,160.8289,140.3132,175.643,212.4208,170.2185,155.2659,0.0573,,0.2490,0.2577,,,,,25.6663,,25.6463,,0.6671,84.6388,,7.898,,7.5352E+02,,5.3724E-01,,11.3919,11.4713,0.1515,,57.422,65.372,,,,,,,,,,,,
CalCOFI,2007SR,026,27,2007_026d,18-Jul-2020 15:30:30,18-Jul-2020 07:30:30,32.91902,-118.93508,090.0 045.0,090.0,045.0,50.000,50.361,,11.3472,,11.3404,,11.3438,33.6681,,33.6683,33.6666,,33.6682,33.6683,3.5140,,3.6541,3.6772,4.0200,,5.6557,4.5391,4.1082,153.008,159.2370,139.1127,175.037,208.6909,169.0761,154.0944,0.0660,,0.3513,0.3667,,,,,25.6768,,25.6769,,0.6664,84.6539,,7.895,,7.5235E+02,,5.1007E-01,,11.3410,11.3341,0.1538,,56.795,64.962,,,,,,,,,,,,
CalCOFI,2007SR,026,27,2007_026d,18-Jul-2020 15:30:32,18-Jul-2020 07:30:32,32.91902,-118.93508,090.0 045.0,090.0,045.0,51.000,51.368,,11.2146,,11.1973,,11.2060,33.6758,,33.6760,33.6780,,33.6796,33.6778,3.4906,,3.6296,3.6523,4.0119,,5.6364,4.5210,4.0867,151.985,158.1690,138.3074,174.681,206.1888,168.4050,153.3562,0.0586,,0.2643,0.2732,,,,,25.7069,,25.7118,,0.6632,84.7224,,7.891,,7.5219E+02,,4.9112E-01,,11.2083,11.1910,0.1561,,56.261,64.640,51,11.053,33.6951,3.523,153.76,0.147,0.186,16.11,0.035,0.00,1.35,15.63